Weather History for Brownwood, TX

Change the Weather History Date:

Sunday, October 7, 2012

  Actual Average (KABI) Record (KABI)
Temperature  
Mean Temperature 47 °F 68 °F  
Max Temperature 50 °F 80 °F 99 °F (1979)
Min Temperature 44 °F 57 °F 39 °F (2000)
Degree Days  
Heating Degree Days 18 2  
Month to date heating degree days 10  
Since 1 July heating degree days 21  
Cooling Degree Days 0 5  
Month to date cooling degree days 41  
Year to date cooling degree days 2312  
Moisture  
Dew Point 36 °F    
Average Humidity 65    
Maximum Humidity 87    
Minimum Humidity 54    
Precipitation  
Precipitation 0.00 in 0.09 in 1.57 in (1887)
Month to date precipitation 0.61  
Year to date precipitation 19.81  
Sea Level Pressure  
Sea Level Pressure 30.26 in    
Wind  
Wind Speed 9 mph (NNE)    
Max Wind Speed 14 mph    
Max Gust Speed 21 mph    
Visibility 10 miles    
Events Rain    
T = Trace of Precipitation, MM = Missing Value Source: NWS Daily Summary

Daily Weather History Graph

Daily Weather History Graph

Search for Another Location

Airport:

Trip Planner

Search our weather history database for the weather conditions in past years. The results will help you decide how hot, cold, wet, or windy it might be!

Date:

Astronomy

Oct. 07, 2012 Rise Set
Actual Time 7:33 AM CDT 7:12 PM CDT
Civil Twilight 7:09 AM CDT 7:36 PM CDT
Nautical Twilight 6:41 AM CDT 8:05 PM CDT
Astronomical Twilight 6:13 AM CDT 8:33 PM CDT
Moon No Moon Rise 1:57 PM CDT (10/7)
Length of Visible Light 12h 27m
Length of Day
11h 38m
Waning Gibbous, 56% of the Moon is Illuminated
Oct 7
Waning Gibbous
Oct 8
Last Quarter
Oct 15
New
Oct 21
First Quarter
Oct 29
Full

Hourly Weather History & Observations

Time (CDT) Temp. Windchill Dew Point Humidity Pressure Visibility Wind Dir Wind Speed Gust Speed Precip Events Conditions
12:15 AM 46.4 °F 42.4 °F 41.0 °F 81% 30.25 in 10.0 mi North 8.1 mph - N/A   Overcast
12:35 AM 46.4 °F 41.1 °F 41.0 °F 81% 30.25 in 5.0 mi North 11.5 mph 19.6 mph N/A   Overcast
12:55 AM 44.6 °F 39.2 °F 41.0 °F 87% 30.25 in 10.0 mi North 10.4 mph 20.7 mph N/A   Overcast
1:15 AM 44.6 °F 39.7 °F 41.0 °F 87% 30.25 in 10.0 mi NNE 9.2 mph - N/A   Overcast
1:35 AM 46.4 °F 41.5 °F 41.0 °F 81% 30.25 in 10.0 mi NNE 10.4 mph - N/A   Overcast
1:55 AM 44.6 °F 39.2 °F 41.0 °F 87% 30.25 in 10.0 mi NNE 10.4 mph 19.6 mph N/A   Overcast
2:15 AM 44.6 °F 38.1 °F 39.2 °F 81% 30.26 in 10.0 mi NNE 13.8 mph 19.6 mph N/A   Overcast
2:35 AM 44.6 °F 39.2 °F 37.4 °F 76% 30.26 in 10.0 mi NNE 10.4 mph 18.4 mph N/A   Overcast
2:55 AM 44.6 °F 38.8 °F 37.4 °F 76% 30.27 in 10.0 mi North 11.5 mph 17.3 mph N/A   Overcast
3:15 AM 44.6 °F 39.2 °F 37.4 °F 76% 30.26 in 10.0 mi NNE 10.4 mph - N/A   Overcast
3:35 AM 44.6 °F 40.7 °F 37.4 °F 76% 30.26 in 10.0 mi NNE 6.9 mph - N/A   Overcast
3:55 AM 44.6 °F 39.2 °F 37.4 °F 76% 30.26 in 10.0 mi NNE 10.4 mph - N/A   Overcast
4:15 AM 46.4 °F 42.9 °F 37.4 °F 71% 30.26 in 10.0 mi NNE 6.9 mph - N/A   Overcast
4:35 AM 46.4 °F 41.5 °F 37.4 °F 71% 30.26 in 10.0 mi NNE 10.4 mph - N/A   Overcast
4:55 AM 46.4 °F 41.9 °F 35.6 °F 66% 30.26 in 10.0 mi North 9.2 mph - N/A   Overcast
5:15 AM 46.4 °F 42.4 °F 35.6 °F 66% 30.26 in 10.0 mi NNE 8.1 mph - N/A   Overcast
5:35 AM 46.4 °F 41.9 °F 37.4 °F 71% 30.27 in 10.0 mi North 9.2 mph - N/A   Overcast
5:55 AM 46.4 °F 42.9 °F 35.6 °F 66% 30.27 in 10.0 mi North 6.9 mph - N/A   Overcast
6:15 AM 46.4 °F 42.4 °F 35.6 °F 66% 30.27 in 10.0 mi NNE 8.1 mph - N/A   Overcast
6:35 AM 46.4 °F 41.9 °F 35.6 °F 66% 30.27 in 10.0 mi NNE 9.2 mph - N/A   Overcast
6:55 AM 46.4 °F 41.5 °F 35.6 °F 66% 30.29 in 10.0 mi NNE 10.4 mph - N/A   Overcast
7:15 AM 46.4 °F 41.9 °F 35.6 °F 66% 30.29 in 10.0 mi NNE 9.2 mph - N/A   Overcast
7:35 AM 46.4 °F 42.4 °F 35.6 °F 66% 30.29 in 10.0 mi NNE 8.1 mph - N/A   Overcast
7:55 AM 46.4 °F 44.3 °F 35.6 °F 66% 30.29 in 10.0 mi NNE 4.6 mph - N/A   Overcast
8:35 AM 44.6 °F 41.4 °F 37.4 °F 76% 30.30 in 6.0 mi NNE 5.8 mph - N/A Rain Light Rain
8:55 AM 44.6 °F 40.2 °F 37.4 °F 76% 30.29 in 10.0 mi NNE 8.1 mph - N/A   Overcast
9:35 AM 46.4 °F 42.4 °F 35.6 °F 66% 30.30 in 10.0 mi NNE 8.1 mph - N/A   Overcast
9:55 AM 46.4 °F 42.4 °F 35.6 °F 66% 30.30 in 10.0 mi North 8.1 mph - N/A   Overcast
10:15 AM 46.4 °F 41.9 °F 35.6 °F 66% 30.31 in 10.0 mi NNE 9.2 mph - N/A   Overcast
10:35 AM 46.4 °F 42.4 °F 35.6 °F 66% 30.31 in 10.0 mi NNE 8.1 mph - N/A   Overcast
10:55 AM 46.4 °F 42.9 °F 35.6 °F 66% 30.31 in 10.0 mi NNE 6.9 mph - N/A   Overcast
11:15 AM 48.2 °F - 35.6 °F 62% 30.31 in 10.0 mi NNE 10.4 mph - N/A   Overcast
11:35 AM 48.2 °F - 35.6 °F 62% 30.30 in 10.0 mi NNE 8.1 mph - N/A   Overcast
11:55 AM 48.2 °F - 37.4 °F 66% 30.29 in 10.0 mi NNE 10.4 mph - N/A   Overcast
12:15 PM 48.2 °F - 37.4 °F 66% 30.28 in 10.0 mi NE 6.9 mph - N/A   Overcast
12:35 PM 48.2 °F - 37.4 °F 66% 30.27 in 10.0 mi NE 8.1 mph - N/A   Overcast
12:55 PM 50.0 °F - 37.4 °F 62% 30.26 in 10.0 mi ENE 10.4 mph - N/A   Overcast
1:15 PM 50.0 °F - 35.6 °F 58% 30.26 in 10.0 mi North 6.9 mph - N/A   Overcast
1:35 PM 50.0 °F - 35.6 °F 58% 30.26 in 10.0 mi North 8.1 mph - N/A   Overcast
1:55 PM 48.2 °F - 35.6 °F 62% 30.25 in 10.0 mi North 10.4 mph - N/A   Overcast
2:35 PM 50.0 °F - 35.6 °F 58% 30.22 in 10.0 mi NNE 10.4 mph - N/A   Overcast
2:55 PM 50.0 °F - 35.6 °F 58% 30.22 in 10.0 mi NNE 8.1 mph - N/A   Overcast
3:15 PM 50.0 °F - 35.6 °F 58% 30.22 in 10.0 mi NE 6.9 mph - N/A   Overcast
3:35 PM 50.0 °F - 35.6 °F 58% 30.21 in 10.0 mi North 5.8 mph - N/A   Overcast
3:55 PM 50.0 °F - 35.6 °F 58% 30.21 in 10.0 mi NNE 6.9 mph - N/A   Overcast
4:15 PM 50.0 °F - 35.6 °F 58% 30.20 in 10.0 mi NNE 9.2 mph - N/A   Overcast
4:35 PM 50.0 °F - 35.6 °F 58% 30.21 in 10.0 mi NE 9.2 mph - N/A   Overcast
4:55 PM 50.0 °F - 35.6 °F 58% 30.21 in 10.0 mi NE 6.9 mph - N/A   Overcast
5:15 PM 50.0 °F - 35.6 °F 58% 30.21 in 10.0 mi NNE 6.9 mph - N/A   Overcast
5:35 PM 48.2 °F - 33.8 °F 58% 30.21 in 10.0 mi NNE 8.1 mph - N/A   Overcast
5:55 PM 48.2 °F - 35.6 °F 62% 30.21 in 10.0 mi NE 6.9 mph - N/A   Overcast
6:15 PM 48.2 °F - 35.6 °F 62% 30.22 in 10.0 mi NNE 6.9 mph - N/A   Overcast
6:35 PM 48.2 °F - 35.6 °F 62% 30.22 in 10.0 mi NE 6.9 mph - N/A   Overcast
6:55 PM 48.2 °F - 33.8 °F 58% 30.23 in 10.0 mi North 9.2 mph - N/A   Overcast
7:15 PM 48.2 °F - 33.8 °F 58% 30.23 in 10.0 mi NE 6.9 mph - N/A   Overcast
7:35 PM 48.2 °F - 35.6 °F 62% 30.24 in 10.0 mi NNE 8.1 mph - N/A   Overcast
7:55 PM 48.2 °F - 35.6 °F 62% 30.24 in 10.0 mi NNE 6.9 mph - N/A   Overcast
8:15 PM 48.2 °F - 32.0 °F 54% 30.25 in 10.0 mi NE 5.8 mph - N/A   Overcast
8:35 PM 48.2 °F - 32.0 °F 54% 30.25 in 10.0 mi NE 6.9 mph - N/A   Overcast
8:55 PM 48.2 °F - 32.0 °F 54% 30.24 in 10.0 mi NE 3.5 mph - N/A   Overcast
9:15 PM 48.2 °F - 32.0 °F 54% 30.24 in 10.0 mi ENE 5.8 mph - N/A   Overcast
9:35 PM 48.2 °F - 32.0 °F 54% 30.26 in 10.0 mi NNE 3.5 mph - N/A   Overcast
9:55 PM 48.2 °F - 32.0 °F 54% 30.26 in 10.0 mi NNE 3.5 mph - N/A   Overcast
10:15 PM 48.2 °F - 32.0 °F 54% 30.26 in 10.0 mi North 5.8 mph - N/A   Overcast
10:35 PM 48.2 °F - 32.0 °F 54% 30.26 in 10.0 mi North 4.6 mph - N/A   Overcast
10:55 PM 48.2 °F - 32.0 °F 54% 30.25 in 10.0 mi NE 3.5 mph - N/A   Overcast
11:15 PM 48.2 °F - 32.0 °F 54% 30.25 in 10.0 mi NNE 4.6 mph - N/A   Overcast
11:35 PM 48.2 °F - 32.0 °F 54% 30.25 in 10.0 mi NE 3.5 mph - N/A   Overcast
11:55 PM 48.2 °F - 32.0 °F 54% 30.24 in 10.0 mi ENE 3.5 mph - N/A   Overcast